• In Deutschland
  • Länderverzeichnis
  • Für 7 Tage
  • Wassertemperatur
  • Satellitenkarten
  • Wetterkarte
  • Widgets
  • user-avatar
    Anmelden

    Stündliche Wetter Sankt Pölten

    Heute, 27 April, Donnerstag

    Zeit Temperatur Niederschläge Wind Luftdruck Luftfeuchtigkeit
    00:00 +7°C° 0,4 mm 1 m/S 731 mmHg 97%
    01:00 +7°C° 0,4 mm 1 m/S 731 mmHg 97%
    02:00 +7°C° 0,8 mm 1 m/S 731 mmHg 97%
    03:00 +7°C° 0,8 mm 1 m/S 730 mmHg 97%
    04:00 +6°C° 0,8 mm 1 m/S 730 mmHg 97%
    05:00 +5°C° 0,7 mm 2 m/S 731 mmHg 97%
    06:00 +5°C° 0,7 mm 2 m/S 731 mmHg 96%
    07:00 +5°C° 0,7 mm 2 m/S 731 mmHg 96%
    08:00 +6°C° 0,7 mm 2 m/S 731 mmHg 95%
    09:00 +6°C° 0,7 mm 2 m/S 732 mmHg 94%
    10:00 +6°C° 0,7 mm 2 m/S 732 mmHg 94%
    11:00 +7°C° 0,3 mm 2 m/S 732 mmHg 92%
    12:00 +7°C° 0,3 mm 2 m/S 732 mmHg 91%
    13:00 +8°C° 0,3 mm 2 m/S 732 mmHg 89%
    14:00 +8°C° 0,2 mm 2 m/S 732 mmHg 89%
    15:00 +8°C° 0,2 mm 2 m/S 732 mmHg 90%
    16:00 +8°C° 0,2 mm 2 m/S 732 mmHg 90%
    17:00 +8°C° 0,2 mm 2 m/S 732 mmHg 92%
    18:00 +7°C° 0,2 mm 2 m/S 732 mmHg 94%
    19:00 +7°C° 0,2 mm 2 m/S 732 mmHg 96%
    20:00 +7°C° 0,3 mm 2 m/S 731 mmHg 97%
    21:00 +6°C° 0,3 mm 2 m/S 731 mmHg 97%
    22:00 +6°C° 0,3 mm 2 m/S 731 mmHg 97%
    23:00 +6°C° 0,5 mm 2 m/S 730 mmHg 97%

    Morgen, 28 April, Freitag

    Zeit Temperatur Niederschläge Wind Luftdruck Luftfeuchtigkeit
    00:00 +6°C° 0,5 mm 2 m/S 730 mmHg 97%
    01:00 +6°C° 0,5 mm 2 m/S 729 mmHg 97%
    02:00 +5°C° 0,7 mm 2 m/S 729 mmHg 98%
    03:00 +5°C° 0,7 mm 2 m/S 728 mmHg 98%
    04:00 +6°C° 0,7 mm 1 m/S 728 mmHg 98%
    05:00 +6°C° 0,3 mm 1 m/S 728 mmHg 98%
    06:00 +7°C° 0,3 mm 1 m/S 728 mmHg 97%
    07:00 +6°C° 0,3 mm 2 m/S 727 mmHg 97%
    08:00 +6°C° 0,5 mm 2 m/S 728 mmHg 96%
    09:00 +7°C° 0,5 mm 2 m/S 728 mmHg 95%
    10:00 +7°C° 0,5 mm 2 m/S 728 mmHg 94%
    11:00 +7°C° 0,4 mm 2 m/S 728 mmHg 94%
    12:00 +7°C° 0,4 mm 2 m/S 728 mmHg 94%
    13:00 +7°C° 0,4 mm 2 m/S 728 mmHg 94%
    14:00 +8°C° 0,1 mm 2 m/S 728 mmHg 91%
    15:00 +8°C° 0,1 mm 3 m/S 728 mmHg 88%
    16:00 +9°C° 0,1 mm 3 m/S 728 mmHg 85%
    17:00 +8°C° 0,1 mm 3 m/S 729 mmHg 87%
    18:00 +7°C° 0,1 mm 3 m/S 730 mmHg 89%
    19:00 +7°C° 0,1 mm 2 m/S 730 mmHg 92%
    20:00 +6°C° 0,2 mm 2 m/S 731 mmHg 93%
    21:00 +6°C° 0,2 mm 2 m/S 731 mmHg 95%
    22:00 +5°C° 0,2 mm 3 m/S 732 mmHg 96%
    23:00 +5°C° 0,1 mm 3 m/S 732 mmHg 96%

    übermorgen, 29 April, Samstag

    Zeit Temperatur Niederschläge Wind Luftdruck Luftfeuchtigkeit
    00:00 +4°C° 0,1 mm 3 m/S 733 mmHg 96%
    01:00 +4°C° 0,1 mm 3 m/S 733 mmHg 95%
    02:00 +4°C° 0,1 mm 3 m/S 733 mmHg 95%
    03:00 +4°C° 0,1 mm 3 m/S 734 mmHg 95%
    04:00 +4°C° 0,1 mm 3 m/S 734 mmHg 95%
    05:00 +4°C° 0 mm 3 m/S 734 mmHg 93%
    06:00 +5°C° 0 mm 3 m/S 735 mmHg 92%
    07:00 +5°C° 0 mm 4 m/S 735 mmHg 90%
    08:00 +6°C° 0 mm 4 m/S 735 mmHg 85%
    09:00 +7°C° 0 mm 4 m/S 735 mmHg 81%
    10:00 +8°C° 0 mm 4 m/S 735 mmHg 76%
    11:00 +10°C° 0,1 mm 4 m/S 735 mmHg 72%
    12:00 +11°C° 0,1 mm 4 m/S 735 mmHg 68%
    13:00 +12°C° 0,1 mm 4 m/S 735 mmHg 64%
    14:00 +12°C° 0 mm 4 m/S 735 mmHg 63%
    15:00 +12°C° 0 mm 3 m/S 735 mmHg 62%
    16:00 +12°C° 0 mm 3 m/S 735 mmHg 61%
    17:00 +10°C° 0 mm 2 m/S 735 mmHg 71%
    18:00 +8°C° 0 mm 2 m/S 735 mmHg 80%
    19:00 +6°C° 0 mm 1 m/S 735 mmHg 89%
    20:00 +5°C° 0 mm 1 m/S 735 mmHg 90%
    21:00 +5°C° 0 mm 1 m/S 735 mmHg 91%
    22:00 +4°C° 0 mm 1 m/S 735 mmHg 92%
    23:00 +4°C° 0 mm 1 m/S 735 mmHg 92%

    30 April, Sonntag

    Zeit Temperatur Niederschläge Wind Luftdruck Luftfeuchtigkeit
    00:00 +3°C° 0 mm 1 m/S 735 mmHg 93%
    01:00 +3°C° 0 mm 1 m/S 735 mmHg 93%
    02:00 +3°C° 0 mm 1 m/S 735 mmHg 93%
    03:00 +3°C° 0 mm 1 m/S 735 mmHg 93%
    04:00 +3°C° 0 mm 1 m/S 735 mmHg 93%
    05:00 +5°C° 0 mm 1 m/S 736 mmHg 87%
    06:00 +7°C° 0 mm 1 m/S 736 mmHg 82%
    07:00 +10°C° 0 mm 1 m/S 736 mmHg 76%
    08:00 +10°C° 0 mm 2 m/S 736 mmHg 71%
    09:00 +13°C° 0 mm 2 m/S 736 mmHg 65%
    10:00 +14°C° 0 mm 3 m/S 736 mmHg 60%
    11:00 +16°C° 0 mm 3 m/S 735 mmHg 58%
    12:00 +17°C° 0 mm 3 m/S 735 mmHg 56%
    13:00 +18°C° 0 mm 3 m/S 735 mmHg 55%
    14:00 +18°C° 0 mm 4 m/S 734 mmHg 56%
    15:00 +18°C° 0 mm 4 m/S 734 mmHg 57%
    16:00 +18°C° 0 mm 4 m/S 734 mmHg 59%
    17:00 +15°C° 0 mm 4 m/S 734 mmHg 68%
    18:00 +13°C° 0 mm 3 m/S 734 mmHg 77%
    19:00 +11°C° 0 mm 3 m/S 734 mmHg 86%
    20:00 +10°C° 0 mm 3 m/S 734 mmHg 88%
    21:00 +9°C° 0 mm 3 m/S 734 mmHg 90%
    22:00 +8°C° 0 mm 2 m/S 735 mmHg 92%
    23:00 +7°C° 0 mm 2 m/S 735 mmHg 92%

    1 Mai, Montag

    Zeit Temperatur Niederschläge Wind Luftdruck Luftfeuchtigkeit
    00:00 +7°C° 0 mm 2 m/S 734 mmHg 93%
    01:00 +6°C° 0 mm 2 m/S 734 mmHg 94%
    02:00 +6°C° 0 mm 2 m/S 734 mmHg 94%
    03:00 +6°C° 0 mm 2 m/S 734 mmHg 94%
    04:00 +6°C° 0 mm 2 m/S 734 mmHg 94%
    05:00 +7°C° 0 mm 3 m/S 734 mmHg 88%
    06:00 +9°C° 0 mm 3 m/S 734 mmHg 83%
    07:00 +10°C° 0 mm 3 m/S 734 mmHg 78%
    08:00 +12°C° 0 mm 4 m/S 734 mmHg 71%
    09:00 +14°C° 0 mm 5 m/S 734 mmHg 63%
    10:00 +16°C° 0 mm 6 m/S 734 mmHg 56%
    11:00 +17°C° 0 mm 6 m/S 734 mmHg 54%
    12:00 +19°C° 0 mm 6 m/S 734 mmHg 53%
    13:00 +19°C° 0 mm 6 m/S 733 mmHg 51%
    14:00 +19°C° 0 mm 6 m/S 733 mmHg 53%
    15:00 +19°C° 0 mm 6 m/S 733 mmHg 55%
    16:00 +19°C° 0 mm 6 m/S 733 mmHg 57%
    17:00 +16°C° 0 mm 5 m/S 733 mmHg 64%
    18:00 +15°C° 0 mm 4 m/S 733 mmHg 72%
    19:00 +13°C° 0 mm 4 m/S 733 mmHg 79%
    20:00 +12°C° 0 mm 3 m/S 734 mmHg 83%
    21:00 +11°C° 0 mm 3 m/S 734 mmHg 86%
    22:00 +10°C° 0 mm 3 m/S 734 mmHg 89%
    23:00 +10°C° 0 mm 3 m/S 734 mmHg 91%

    2 Mai, Dienstag

    Zeit Temperatur Niederschläge Wind Luftdruck Luftfeuchtigkeit
    00:00 +9°C° 0 mm 2 m/S 734 mmHg 93%
    01:00 +9°C° 0 mm 2 m/S 734 mmHg 95%
    02:00 +8°C° 0 mm 2 m/S 735 mmHg 95%
    03:00 +8°C° 0 mm 2 m/S 735 mmHg 96%
    04:00 +8°C° 0 mm 2 m/S 735 mmHg 96%
    05:00 +9°C° 0 mm 2 m/S 735 mmHg 92%
    06:00 +12°C° 0 mm 2 m/S 736 mmHg 87%
    07:00 +14°C° 0 mm 2 m/S 736 mmHg 82%
    08:00 +16°C° 0 mm 2 m/S 736 mmHg 75%
    09:00 +18°C° 0 mm 3 m/S 736 mmHg 69%
    10:00 +20°C° 0 mm 3 m/S 737 mmHg 62%
    11:00 +21°C° 0,1 mm 3 m/S 737 mmHg 60%
    12:00 +22°C° 0,1 mm 4 m/S 737 mmHg 58%
    13:00 +23°C° 0,1 mm 4 m/S 737 mmHg 56%
    14:00 +22°C° 0,1 mm 4 m/S 736 mmHg 58%
    15:00 +22°C° 0,1 mm 4 m/S 736 mmHg 60%
    16:00 +22°C° 0,1 mm 4 m/S 736 mmHg 62%
    17:00 +20°C° 0,1 mm 4 m/S 736 mmHg 70%
    18:00 +18°C° 0,1 mm 3 m/S 736 mmHg 78%
    19:00 +16°C° 0,1 mm 3 m/S 736 mmHg 87%
    20:00 +15°C° 0 mm 2 m/S 737 mmHg 89%
    21:00 +15°C° 0 mm 2 m/S 737 mmHg 91%
    22:00 +14°C° 0 mm 2 m/S 737 mmHg 94%
    23:00 +13°C° 0 mm 2 m/S 737 mmHg 94%
    Mehr zeigen